When you browse on this site, cookies collect data to enhance your experience and personalize the content and advertising you see.
Visit our Privacy Policy to learn more. By continuing to use the site, you agree to this use of cookies and data.
  • en France
  • Liste des pays
  • À 7 jours
  • Température de l'eau
  • Carte météo
  • Widgets météo
  • user-avatar
    Se connecter

    Météo par heure à Moutare

    Ce jour, 26 Mai, Mardi

    Heure Température Précipitation Vent Pression Humidité
    00:00 +13°C° 0 mm 1 m/s 651 mmHg 71%
    01:00 +13°C° 0 mm 1 m/s 651 mmHg 72%
    02:00 +12°C° 0 mm 1 m/s 651 mmHg 76%
    03:00 +12°C° 0 mm 1 m/s 651 mmHg 75%
    04:00 +12°C° 0 mm 1 m/s 651 mmHg 73%
    05:00 +12°C° 0 mm 1 m/s 650 mmHg 72%
    06:00 +14°C° 0 mm 1 m/s 651 mmHg 64%
    07:00 +16°C° 0 mm 1 m/s 652 mmHg 57%
    08:00 +19°C° 0 mm 1 m/s 653 mmHg 49%
    09:00 +22°C° 0 mm 1 m/s 654 mmHg 41%
    10:00 +24°C° 0 mm 2 m/s 654 mmHg 34%
    11:00 +26°C° 0 mm 2 m/s 655 mmHg 26%
    12:00 +27°C° 0 mm 3 m/s 654 mmHg 25%
    13:00 +28°C° 0 mm 3 m/s 653 mmHg 23%
    14:00 +28°C° 0 mm 3 m/s 653 mmHg 21%
    15:00 +26°C° 0 mm 2 m/s 652 mmHg 25%
    16:00 +25°C° 0 mm 1 m/s 652 mmHg 30%
    17:00 +23°C° 0 mm 1 m/s 651 mmHg 34%
    18:00 +22°C° 0 mm 1 m/s 652 mmHg 36%
    19:00 +20°C° 0 mm 1 m/s 652 mmHg 38%
    20:00 +19°C° 0 mm 1 m/s 652 mmHg 40%
    21:00 +19°C° 0 mm 1 m/s 652 mmHg 40%
    22:00 +19°C° 0 mm 1 m/s 652 mmHg 41%
    23:00 +19°C° 0 mm 1 m/s 653 mmHg 41%

    Demain, 27 Mai, Mercredi

    Heure Température Précipitation Vent Pression Humidité
    00:00 +18°C° 0 mm 1 m/s 652 mmHg 45%
    01:00 +16°C° 0 mm 1 m/s 651 mmHg 49%
    02:00 +15°C° 0 mm 1 m/s 651 mmHg 53%
    03:00 +15°C° 0 mm 1 m/s 651 mmHg 54%
    04:00 +15°C° 0 mm 1 m/s 651 mmHg 56%
    05:00 +14°C° 0 mm 1 m/s 651 mmHg 58%
    06:00 +16°C° 0 mm 1 m/s 652 mmHg 54%
    07:00 +17°C° 0 mm 2 m/s 653 mmHg 49%
    08:00 +19°C° 0 mm 2 m/s 654 mmHg 45%
    09:00 +20°C° 0 mm 2 m/s 655 mmHg 38%
    10:00 +23°C° 0 mm 2 m/s 655 mmHg 32%
    11:00 +24°C° 0 mm 3 m/s 656 mmHg 25%
    12:00 +25°C° 0 mm 3 m/s 655 mmHg 24%
    13:00 +26°C° 0 mm 2 m/s 655 mmHg 23%
    14:00 +26°C° 0 mm 2 m/s 654 mmHg 22%
    15:00 +24°C° 0 mm 2 m/s 654 mmHg 27%
    16:00 +21°C° 0 mm 2 m/s 654 mmHg 31%
    17:00 +20°C° 0 mm 1 m/s 654 mmHg 35%
    18:00 +18°C° 0 mm 1 m/s 654 mmHg 44%
    19:00 +16°C° 0 mm 1 m/s 654 mmHg 53%
    20:00 +14°C° 0 mm 1 m/s 654 mmHg 63%
    21:00 +13°C° 0 mm 1 m/s 654 mmHg 73%
    22:00 +12°C° 0 mm 1 m/s 654 mmHg 84%
    23:00 +11°C° 0 mm 1 m/s 654 mmHg 94%

    Après-demain, 28 Mai, Jeudi

    Heure Température Précipitation Vent Pression Humidité
    00:00 +11°C° 0 mm 1 m/s 654 mmHg 95%
    01:00 +11°C° 0 mm 1 m/s 654 mmHg 96%
    02:00 +11°C° 0 mm 1 m/s 654 mmHg 96%
    03:00 +11°C° 0 mm 1 m/s 654 mmHg 95%
    04:00 +11°C° 0 mm 1 m/s 655 mmHg 93%
    05:00 +12°C° 0 mm 1 m/s 655 mmHg 92%
    06:00 +12°C° 0 mm 2 m/s 655 mmHg 88%
    07:00 +13°C° 0 mm 2 m/s 656 mmHg 84%
    08:00 +14°C° 0 mm 2 m/s 656 mmHg 79%
    09:00 +16°C° 0 mm 2 m/s 657 mmHg 71%
    10:00 +18°C° 0 mm 2 m/s 657 mmHg 62%
    11:00 +20°C° 0 mm 3 m/s 657 mmHg 54%
    12:00 +21°C° 0 mm 3 m/s 657 mmHg 51%
    13:00 +22°C° 0 mm 3 m/s 656 mmHg 47%
    14:00 +24°C° 0 mm 3 m/s 656 mmHg 44%
    15:00 +22°C° 0 mm 3 m/s 655 mmHg 51%
    16:00 +20°C° 0 mm 3 m/s 655 mmHg 57%
    17:00 +19°C° 0 mm 2 m/s 655 mmHg 64%
    18:00 +17°C° 0 mm 2 m/s 655 mmHg 71%
    19:00 +16°C° 0 mm 2 m/s 655 mmHg 78%
    20:00 +14°C° 0 mm 2 m/s 655 mmHg 85%
    21:00 +14°C° 0 mm 2 m/s 655 mmHg 88%
    22:00 +14°C° 0 mm 2 m/s 655 mmHg 91%
    23:00 +13°C° 0 mm 2 m/s 655 mmHg 94%

    29 Mai, Vendredi

    Heure Température Précipitation Vent Pression Humidité
    00:00 +13°C° 0 mm 1 m/s 654 mmHg 95%
    01:00 +13°C° 0 mm 1 m/s 654 mmHg 96%
    02:00 +13°C° 0 mm 1 m/s 654 mmHg 96%
    03:00 +13°C° 0 mm 1 m/s 654 mmHg 97%
    04:00 +13°C° 0 mm 1 m/s 654 mmHg 97%
    05:00 +12°C° 0 mm 1 m/s 654 mmHg 97%
    06:00 +13°C° 0 mm 0 m/s 655 mmHg 89%
    07:00 +14°C° 0 mm 0 m/s 655 mmHg 81%
    08:00 +16°C° 0 mm 0 m/s 656 mmHg 74%
    09:00 +19°C° 0 mm 0 m/s 657 mmHg 60%
    10:00 +22°C° 0 mm 0 m/s 657 mmHg 46%
    11:00 +25°C° 0 mm 0 m/s 658 mmHg 33%
    12:00 +28°C° 0 mm 1 m/s 657 mmHg 30%
    13:00 +29°C° 0 mm 1 m/s 656 mmHg 27%
    14:00 +29°C° 0 mm 1 m/s 656 mmHg 24%
    15:00 +27°C° 0 mm 1 m/s 655 mmHg 30%
    16:00 +25°C° 0 mm 1 m/s 654 mmHg 37%
    17:00 +23°C° 0 mm 2 m/s 654 mmHg 44%
    18:00 +20°C° 0 mm 2 m/s 654 mmHg 51%
    19:00 +19°C° 0 mm 2 m/s 654 mmHg 58%
    20:00 +17°C° 0 mm 2 m/s 654 mmHg 65%
    21:00 +16°C° 0 mm 1 m/s 654 mmHg 74%
    22:00 +15°C° 0 mm 1 m/s 654 mmHg 83%
    23:00 +14°C° 0 mm 1 m/s 654 mmHg 92%

    30 Mai, Samedi

    Heure Température Précipitation Vent Pression Humidité
    00:00 +14°C° 0 mm 1 m/s 654 mmHg 94%
    01:00 +14°C° 0 mm 1 m/s 654 mmHg 95%
    02:00 +14°C° 0 mm 1 m/s 654 mmHg 97%
    03:00 +13°C° 0 mm 1 m/s 654 mmHg 96%
    04:00 +12°C° 0 mm 0 m/s 654 mmHg 96%
    05:00 +12°C° 0 mm 0 m/s 654 mmHg 96%
    06:00 +14°C° 0 mm 0 m/s 655 mmHg 89%
    07:00 +16°C° 0 mm 0 m/s 656 mmHg 82%
    08:00 +17°C° 0 mm 0 m/s 657 mmHg 75%
    09:00 +22°C° 0.1 mm 1 m/s 657 mmHg 65%
    10:00 +24°C° 0.1 mm 1 m/s 658 mmHg 55%
    11:00 +26°C° 0.1 mm 1 m/s 658 mmHg 45%
    12:00 +26°C° 0.1 mm 2 m/s 658 mmHg 47%
    13:00 +25°C° 0.1 mm 2 m/s 657 mmHg 48%
    14:00 +24°C° 0.1 mm 3 m/s 656 mmHg 50%
    15:00 +22°C° 0.3 mm 3 m/s 656 mmHg 59%
    16:00 +20°C° 0.3 mm 2 m/s 656 mmHg 67%
    17:00 +19°C° 0.3 mm 2 m/s 656 mmHg 75%
    18:00 +18°C° 0.1 mm 2 m/s 656 mmHg 81%
    19:00 +16°C° 0.1 mm 2 m/s 656 mmHg 86%
    20:00 +14°C° 0.1 mm 3 m/s 657 mmHg 92%
    21:00 +15°C° 0 mm 2 m/s 657 mmHg 93%
    22:00 +15°C° 0 mm 2 m/s 657 mmHg 95%
    23:00 +15°C° 0 mm 2 m/s 657 mmHg 96%

    31 Mai, Dimanche

    Heure Température Précipitation Vent Pression Humidité
    00:00 +14°C° 0 mm 2 m/s 657 mmHg 96%
    01:00 +14°C° 0 mm 2 m/s 656 mmHg 97%
    02:00 +13°C° 0 mm 2 m/s 656 mmHg 97%
    03:00 +13°C° 0 mm 2 m/s 656 mmHg 97%
    04:00 +13°C° 0 mm 2 m/s 656 mmHg 96%
    05:00 +13°C° 0 mm 1 m/s 656 mmHg 96%
    06:00 +13°C° 0 mm 2 m/s 657 mmHg 93%
    07:00 +14°C° 0 mm 2 m/s 657 mmHg 90%
    08:00 +15°C° 0 mm 2 m/s 658 mmHg 87%
    09:00 +16°C° 0 mm 2 m/s 658 mmHg 77%
    10:00 +18°C° 0 mm 2 m/s 658 mmHg 68%
    11:00 +20°C° 0 mm 2 m/s 658 mmHg 58%
    12:00 +20°C° 0 mm 3 m/s 658 mmHg 56%
    13:00 +21°C° 0 mm 3 m/s 658 mmHg 55%
    14:00 +21°C° 0 mm 3 m/s 657 mmHg 53%
    15:00 +20°C° 0 mm 3 m/s 657 mmHg 60%
    16:00 +19°C° 0 mm 3 m/s 657 mmHg 67%
    17:00 +17°C° 0 mm 2 m/s 657 mmHg 74%
    18:00 +16°C° 0 mm 2 m/s 657 mmHg 81%
    19:00 +15°C° 0 mm 2 m/s 657 mmHg 88%
    20:00 +14°C° 0 mm 2 m/s 657 mmHg 94%
    21:00 +14°C° 0 mm 2 m/s 657 mmHg 95%
    22:00 +14°C° 0 mm 2 m/s 657 mmHg 96%
    23:00 +14°C° 0 mm 2 m/s 657 mmHg 96%
    Voir plus